Terminal Aerodrome Forecast
Issued by NWS Rapid City, SD

Home | Current Version | Previous Version | Graphics & Text | Print | Product List | Glossary On
Versions: 1 2 3 4 5 6 7 8 9 10 11 12 13 14 15 16 17 18 19 20
000
FTUS43 KUNR 121700
TAFRAP
TAF
KRAP 121720Z 1218/1318 14008KT P6SM SCT100
      TEMPO 1218/1220 BKN006
     FM122100 34010KT P6SM VCTS SCT060CB
     FM130200 35008KT P6SM SKC=

USA.gov is the U.S. government's official web portal to all federal, state and local government web resources and services.